loading
|

STARLINK-32122, 60285

Orbit data source: Space-Track

STARLINK-32122, 60285 is a payload satellite owned by SpaceX/Seattle (US) in LEO that was launched on Sun, 28 Jul 2024 UTC via an FALCON 9 launch vehicle from the Air Force Eastern Test Range (AFETR). Payloads include a variety of satellites, spacecraft, and rockets equipped with specific instruments for various scientific and technological missions. These include communications satellites like Starlink; space stations such as the ISS; scientific satellites like the Hubble; Earth observation satellites from companies like Planet Labs, Umbra, and HawkEye 360; GPS; miniature CubeSats for education and research; and military/defense satellites.

Loading next visibility...
Loading greatness...
STARLINK-32122 details
Identifier
60285, 2024-132H
Orbit
LEO
Last TLE update6 hours ago
Origin
Flag of USSpaceX/Seattle (US)
ManufacturerSpaceX/Seattle
Mission statusOperational
MissionUnknown
Bus & MotorSTARLINK V2M, Unknown motor
Mass750 kg wet, ~700 kg dry
Launch date (UTC)
2024-07-28 (2 months ago)
Launch vehicle
FALCON 9
Launch site
Air Force Eastern Test Range (AFETR)
Object type
Payload
Rocket body
Debris
Radar Cross SectionLarge (>1 m²)

Expand to show TLE details & history

TLE from 6 hours ago
0 STARLINK-32122
1 60285U 24132H   24261.63053259  .00001524  00000-0  48081-4 0  9998
2 60285  53.1615  32.2006 0001447 100.6959 259.4209 15.39621128  9179
Epoch: 2024-09-17T15:07Z
Definitive object data (Epoch: 2024-09-17T15:07:58.015Z)
Latitude-0.00003°
Longitude168.16642°
Altitude448.314 km
Speed7.644 km/s
True Right ascension02h 08m 48s
True Declination0° 00' 00"
Sunlit
Object was in full shadow at TLE epoch
Predictive object data (real-time)
Latitude-25.56739°
Longitude146.08981°
Altitude455.389 km
Speed7.639 km/s
Apparent Right ascension01h 16m 35s
Apparent Declination-32° 44' 08"
Sunlit
Object is in full shadow
Predictive observer data (real-time)
Local Sidereal Time14:02:08
Azimuth55.45° ENE
Elevation-78.366°
Doppler factor1
Orbital elements
Apogee448.474 km
Perigee446.498 km
Semi-major axis6,825.623 km
Eccentricity0.0001447
Inclination53.1615°
RAAN32.2006°
Arg. of periapsis100.6959°
True anomaly259.4046°
Mean anomaly259.4209°
Eccentric anomaly259.41275°
Mean motion3.84884 °/min
BSTAR0.000048081
Period93.53 mins
No data available

STARLINK-32122 Visibility forecast

Observer location: 39.9160978°, -105.1181434

STARLINK-32122 is not visible in the next 10 days
Span
Click to sort rows by Start time (UTC) header in descending order
Start Az.
Max El. time (UTC)
Max El. Az.
Max El.
End time (UTC)
End Az.